Location: Niedergestelen
(46.3129°N, 7.7822°E)
Time: 23:28:44
(UTC+00:00)

X-37B - Visible Passes

Search period start: 21 September 2021 00:00
Search period end: 01 October 2021 00:00
Orbit: 381 x 393 km, 45.0° (Epoch: 29 August)

Date Brightness Start Highest point End Pass type
(mag) Time Alt. Az. Time Alt. Az. Time Alt. Az.
21 Sep 2.9 04:19:13 10° SSW 04:21:30 18° SSE 04:23:48 10° ESE visible
22 Sep 3.3 03:22:47 11° SSE 03:23:22 11° SE 03:24:29 10° SE visible
23 Sep 2.1 03:59:30 18° SSW 04:01:10 28° SSE 04:03:57 10° E visible
24 Sep 3.1 03:03:52 17° SE 03:03:52 17° SE 03:05:15 10° ESE visible
24 Sep 1.0 04:36:10 10° WSW 04:39:12 55° SSE 04:42:19 10° E visible
25 Sep 1.3 03:40:29 38° S 03:40:54 40° SSE 03:43:54 10° E visible
26 Sep 3.6 02:44:46 14° ESE 02:44:46 14° ESE 02:45:25 10° E visible
26 Sep 0.7 04:17:04 21° WSW 04:19:01 67° S 04:22:10 10° E visible
27 Sep 1.5 03:21:20 43° ESE 03:21:20 43° ESE 03:23:46 10° E visible
28 Sep 0.5 03:57:54 41° WSW 03:58:50 71° S 04:02:00 10° E visible
29 Sep 2.8 03:02:12 24° E 03:02:12 24° E 03:03:38 10° E visible
29 Sep 0.8 04:34:29 14° W 04:37:01 55° SSW 04:40:07 10° ESE visible
30 Sep 0.6 03:38:49 65° SSE 03:38:49 65° SSE 03:41:49 10° ESE visible
